Theta_e
308 309 311 313 315 316 317 316 317 318 318 318 318 318 318 318 320 319 319 320 321 322 321 314 308 307 310 311 309 308 308 308 309 309 309 310 309 309 309 308 307 308 312 314 313 313 314 314 314 314 314 315 315 317 318 319 318 317 321 323 323 327 325 324 322 315 314 316 312 308 309 311 312 311 310 311 310 310 310 310 311 310 310 310 310 309 309 310
308 309 310 313 316 317 317 316 317 318 318 318 319 319 318 320 321 320 320 320 320 322 323 320 315 310 308 310 310 308 309 308 308 309 309 310 309 309 309 308 307 308 312 314 313 313 314 314 313 314 314 315 316 316 317 318 317 318 323 322 323 331 324 315 314 311 311 313 311 309 309 309 311 310 309 311 310 308 309 310 310 310 310 310 310 309 309 309
308 309 310 313 316 318 317 317 317 316 316 318 319 319 318 320 321 320 321 321 320 321 321 321 322 315 308 309 310 309 309 308 309 309 310 309 307 307 308 308 307 308 312 314 313 313 314 313 313 314 314 315 315 316 316 316 316 316 318 320 327 326 317 310 310 310 310 311 310 310 309 308 309 309 308 309 309 308 308 309 308 309 310 310 310 310 309 309
308 309 311 313 315 317 318 317 316 316 317 319 320 320 318 320 321 321 322 322 321 321 322 322 323 318 310 308 309 310 310 310 311 310 310 309 308 307 307 308 307 308 311 314 313 313 313 312 312 313 314 315 315 315 315 315 316 316 316 323 325 315 313 312 310 311 310 310 309 309 309 308 309 309 308 308 309 310 308 308 309 309 310 311 310 310 309 309
307 308 311 314 315 317 318 317 316 317 319 320 321 321 319 320 321 321 321 322 321 320 321 322 322 320 313 309 309 308 310 315 314 311 311 310 309 307 307 308 308 307 310 313 314 313 313 312 312 313 313 314 314 314 315 314 314 315 315 318 317 310 312 314 310 311 310 309 309 308 309 309 309 309 309 308 309 310 309 310 311 310 311 310 310 310 309 309
307 308 312 315 316 318 318 316 317 319 320 321 321 321 320 321 321 321 321 321 321 319 320 321 322 320 313 309 309 308 310 315 313 311 311 310 309 307 307 309 308 307 309 312 313 313 313 312 313 313 313 313 314 314 314 313 312 315 314 312 312 311 312 312 311 311 310 309 308 308 309 308 308 309 309 308 308 310 309 310 310 310 311 310 310 309 309 309
307 308 313 317 317 318 317 317 318 319 321 321 321 321 320 320 320 320 320 320 320 319 319 320 321 319 312 309 310 309 309 311 311 312 311 310 309 307 307 309 309 308 309 311 313 313 313 312 313 312 313 313 313 313 313 312 311 313 315 311 311 311 310 311 311 311 311 310 309 308 308 307 308 309 308 308 309 310 310 310 310 310 310 310 310 310 309 310
308 309 314 318 317 318 317 318 319 320 321 321 322 322 321 321 320 320 320 320 320 319 317 316 317 314 311 310 309 309 310 311 312 312 311 311 310 307 307 308 310 309 309 311 312 313 313 313 313 312 313 313 312 313 311 310 311 311 313 311 310 311 311 311 311 310 310 309 309 307 306 307 308 308 307 308 310 311 310 310 309 310 310 310 310 310 310 310
309 310 315 318 318 318 318 319 320 321 322 322 322 322 322 321 319 320 320 320 319 318 315 312 310 309 309 310 309 310 312 312 312 312 312 311 309 307 307 308 310 311 310 311 312 313 313 312 313 312 312 311 311 312 310 312 314 311 311 310 309 310 311 311 310 310 309 309 308 308 307 307 308 307 307 310 311 311 311 310 310 309 309 310 310 310 310 310
311 312 316 318 319 319 320 320 321 321 321 321 322 322 322 320 317 317 316 316 317 316 313 309 307 308 309 310 310 312 313 313 312 312 312 310 308 307 307 307 309 311 310 311 312 313 313 312 312 312 311 310 310 310 309 312 314 310 309 309 309 309 310 309 309 310 309 308 308 309 310 308 307 308 309 311 311 310 311 310 310 310 309 309 310 310 310 310
312 313 316 318 319 320 320 320 321 321 321 322 322 322 322 321 319 318 314 310 310 311 308 307 308 309 310 309 309 313 315 312 312 313 311 309 308 307 307 307 308 310 311 310 311 312 312 312 313 311 311 311 309 308 309 310 310 308 308 308 308 308 308 308 309 308 308 308 307 308 309 307 307 308 310 310 310 310 310 310 310 310 310 310 310 310 310 310
315 315 316 318 318 319 320 320 321 320 321 321 322 323 322 321 321 319 312 305 305 306 305 307 310 310 310 309 309 312 313 312 312 312 310 309 307 307 307 307 307 308 310 310 311 312 311 312 311 311 311 311 309 308 308 308 308 307 307 310 310 308 307 307 308 308 307 308 307 307 308 310 310 309 312 311 310 310 309 309 310 310 311 310 311 310 310 310
318 317 318 318 319 320 320 321 320 320 320 319 321 322 322 321 320 316 308 304 305 305 307 310 311 311 310 310 311 312 313 313 312 310 309 308 307 307 307 307 307 307 309 310 311 311 311 311 310 310 310 309 309 308 309 307 306 308 307 307 310 310 310 307 306 307 307 308 308 307 309 313 313 308 310 312 310 309 309 310 310 310 311 310 311 311 311 311
319 320 320 320 320 320 320 320 320 319 317 317 319 321 322 321 317 310 304 305 306 307 310 311 311 311 310 310 312 314 314 313 310 309 309 307 307 308 307 307 307 307 307 308 310 311 311 311 310 309 309 310 308 307 313 311 306 309 307 307 310 309 313 310 304 306 308 308 307 307 309 311 311 308 309 310 310 311 310 311 312 311 311 311 311 311 311 311
319 320 320 320 320 319 319 319 319 319 316 315 318 320 322 319 312 305 304 306 308 310 311 310 311 312 311 311 312 313 313 311 310 309 308 307 307 308 307 307 307 307 307 307 308 310 310 310 309 309 308 309 309 310 319 318 313 313 308 312 315 307 313 315 305 305 308 308 306 307 310 310 310 310 310 310 311 312 311 312 314 313 313 313 313 312 312 313
319 319 319 319 319 319 319 318 318 318 314 314 319 319 318 314 307 304 306 308 309 310 309 310 314 314 312 312 312 312 312 311 310 309 308 308 307 307 307 307 307 306 307 306 307 308 308 309 309 309 307 307 315 319 319 317 321 321 310 315 320 310 311 315 307 304 307 308 307 308 311 311 312 311 310 311 311 311 311 312 313 313 314 314 314 314 313 314
318 319 319 319 319 318 317 316 318 318 312 312 316 315 312 308 305 306 308 309 310 310 309 311 315 314 312 313 313 312 313 313 311 309 308 307 307 308 307 306 307 306 306 306 307 307 307 309 308 310 308 307 317 322 313 311 319 321 312 312 318 314 311 313 311 307 306 309 309 309 309 309 311 309 308 310 310 309 309 310 311 311 312 313 314 314 313 314
318 319 319 318 317 315 314 315 317 315 308 309 312 311 308 306 306 309 310 310 310 309 310 310 312 314 314 313 313 312 313 313 311 309 308 307 307 308 307 307 307 306 307 307 308 309 308 308 309 312 312 308 314 316 311 316 320 318 314 312 316 317 312 312 312 309 308 311 310 310 310 308 309 308 307 309 309 309 309 310 311 311 311 312 312 312 313 313
317 317 316 314 312 309 310 311 312 310 306 306 309 307 306 306 308 309 310 310 310 310 312 312 311 314 315 313 313 313 312 312 311 309 308 308 308 308 308 306 307 307 307 308 309 310 309 308 308 313 315 312 314 315 315 320 319 317 317 315 317 317 313 313 313 310 308 311 312 311 311 310 310 310 309 310 311 310 310 311 311 310 311 311 311 312 312 312
311 310 309 307 306 306 307 307 307 306 305 306 306 306 306 308 311 312 312 311 310 310 313 314 313 313 314 314 314 313 312 311 311 309 308 309 308 309 308 307 310 311 311 312 312 311 309 309 311 314 319 320 320 319 318 317 315 313 314 314 315 314 312 313 315 312 307 312 318 315 312 311 311 311 310 309 311 310 309 309 309 310 311 311 312 312 313 313
305 304 305 305 305 306 306 306 306 306 306 306 305 306 308 312 314 313 312 311 312 311 312 313 314 314 314 314 314 313 311 311 311 309 309 309 308 308 309 311 313 314 314 312 311 311 309 311 316 318 321 320 319 318 317 316 314 313 313 314 314 313 313 313 315 313 308 312 319 317 314 313 311 312 312 311 311 311 309 309 309 311 312 312 312 313 314 314
305 306 306 306 306 306 306 305 306 306 306 306 305 306 310 313 312 310 310 310 311 312 313 313 313 313 313 312 312 311 311 312 311 310 309 309 310 309 310 314 317 316 314 310 310 314 311 313 319 315 311 312 315 315 316 315 315 314 314 314 312 313 316 314 315 316 312 313 319 319 315 313 313 312 312 311 311 311 311 311 311 312 313 314 314 314 314 314
307 307 307 307 306 305 305 305 305 305 305 306 305 306 310 312 310 309 309 310 312 312 313 313 312 311 311 311 311 311 311 312 312 311 310 309 310 311 311 315 319 318 316 315 317 315 313 318 317 308 307 313 316 315 314 312 313 316 313 312 314 315 316 316 318 319 316 312 315 318 314 312 313 315 318 313 308 311 312 312 313 313 313 314 315 315 315 315
307 307 307 307 307 306 305 305 305 305 305 305 305 307 310 311 310 309 309 310 312 313 312 311 311 312 312 311 311 311 311 311 313 313 312 310 310 312 311 313 317 318 317 318 318 316 318 317 308 306 310 315 316 315 314 311 315 324 319 313 318 319 315 317 320 319 318 316 314 315 316 319 322 326 328 317 310 311 311 311 313 313 314 315 316 316 316 316
307 307 307 307 307 307 306 304 305 305 305 306 307 308 310 310 309 309 310 311 313 314 312 311 312 312 312 311 310 311 312 312 312 313 312 310 310 312 312 312 315 318 321 320 317 317 318 311 306 311 314 314 315 316 317 314 317 326 322 315 318 320 317 319 321 318 321 324 316 314 318 325 329 326 322 318 318 317 312 311 313 313 316 315 316 318 316 317
307 306 306 306 307 308 306 306 306 306 307 308 309 310 310 309 310 309 311 314 316 315 312 311 311 311 311 311 310 311 312 313 311 311 312 310 312 313 312 313 311 315 321 319 315 315 314 307 307 314 316 315 316 316 317 316 317 319 316 315 318 318 317 319 319 316 321 323 315 313 319 322 321 317 318 321 321 319 316 319 317 313 317 317 316 318 317 317
306 306 305 305 307 307 308 308 308 309 310 309 309 310 309 309 310 307 309 316 316 313 313 312 311 311 311 310 311 311 312 313 312 311 311 310 312 313 314 315 311 312 314 311 312 314 311 310 310 314 316 316 317 318 317 315 319 318 313 314 317 316 316 317 315 315 319 321 317 317 318 319 319 316 319 320 318 321 325 329 327 317 315 318 317 317 317 316
306 305 306 306 305 307 309 310 310 310 310 311 310 310 310 310 310 308 310 314 311 312 314 313 310 311 311 310 311 311 310 312 315 313 310 310 312 311 313 315 315 318 311 308 314 315 309 313 314 315 318 318 320 318 313 313 316 316 311 311 314 313 316 316 316 318 318 317 319 319 314 317 325 321 317 317 318 326 330 335 338 323 314 315 316 317 317 316
306 306 306 306 306 307 309 310 310 309 310 311 309 310 310 309 309 312 315 312 311 315 314 310 311 311 310 310 311 311 310 312 315 314 310 310 312 311 312 312 313 317 310 308 317 315 309 310 311 314 318 319 319 311 309 314 314 311 309 311 314 314 316 315 315 318 319 317 319 321 314 314 326 327 319 317 320 328 332 337 336 319 311 315 317 317 317 316
306 306 306 306 307 307 308 309 309 308 309 309 309 311 309 309 317 321 317 312 312 314 312 309 311 311 311 314 314 312 312 313 312 312 311 312 312 312 313 312 310 315 315 314 318 314 308 306 306 310 312 311 311 307 306 311 310 308 310 313 316 317 315 316 319 317 317 323 324 321 315 312 320 327 325 320 320 329 330 327 325 315 311 315 317 317 317 316
307 307 306 306 306 307 308 308 308 309 309 309 310 310 307 313 324 322 310 309 311 311 312 312 311 312 314 317 316 314 313 313 311 311 313 313 311 311 312 313 313 316 321 321 318 313 309 308 308 308 306 305 308 309 307 306 306 310 316 317 317 321 318 317 323 318 316 328 327 319 315 312 317 325 328 323 319 322 321 318 320 316 312 315 316 316 316 316
307 307 307 307 306 307 308 307 309 309 309 311 310 308 313 316 318 317 310 309 311 310 312 314 313 315 317 315 316 316 314 314 312 313 316 315 314 314 315 320 319 316 321 323 319 318 316 313 308 305 304 306 312 315 310 308 310 312 318 320 319 323 322 320 325 322 321 326 319 314 313 313 316 319 318 319 316 316 314 312 315 313 311 314 315 315 315 315
306 307 307 307 307 306 308 308 309 308 310 311 307 310 322 322 315 316 316 312 309 309 311 315 315 315 316 314 315 315 313 314 314 313 314 314 314 316 318 321 319 313 316 320 319 320 321 315 309 308 308 305 309 316 314 313 314 312 316 322 323 322 321 325 329 321 320 323 315 311 312 315 319 317 316 318 315 313 311 310 312 311 312 314 314 314 315 315
304 306 306 307 307 306 307 307 307 310 310 309 310 312 315 318 315 313 315 313 310 309 312 314 314 312 312 313 315 314 312 314 314 313 313 312 313 318 319 316 315 316 317 317 317 321 322 318 313 312 311 306 308 313 314 315 315 314 317 320 323 325 323 326 329 322 321 324 319 313 315 322 323 318 318 316 311 311 311 311 313 312 313 314 313 313 314 314
304 305 305 307 307 306 307 305 307 310 309 309 317 316 313 319 318 314 317 317 313 314 313 311 312 313 313 315 315 312 312 314 313 312 313 314 316 321 324 320 318 319 319 319 319 316 316 317 312 307 306 305 309 308 307 312 315 314 314 316 319 323 322 320 321 320 318 319 320 315 318 326 322 316 316 313 311 311 309 309 311 311 313 313 312 313 313 314
303 304 305 306 306 306 306 305 308 309 309 313 317 315 320 323 314 312 318 313 313 318 314 311 314 315 315 317 316 312 312 313 312 311 313 316 317 318 322 324 318 315 316 322 322 315 315 318 311 305 306 304 306 306 304 309 313 312 313 318 317 312 314 317 316 314 312 314 319 316 318 322 317 316 319 319 321 320 316 314 309 309 313 312 312 313 312 313
303 303 305 305 305 306 306 305 308 308 309 314 316 317 323 318 309 316 318 309 311 317 312 312 314 314 316 317 317 316 313 310 310 310 313 315 316 317 319 319 314 314 316 316 317 318 317 318 311 306 309 305 301 303 303 303 308 313 315 317 312 307 311 317 317 318 317 318 320 316 317 321 317 318 323 323 322 322 325 321 311 309 310 311 313 313 312 314
303 303 304 305 305 306 306 305 307 310 309 310 314 319 318 312 308 313 314 308 312 315 313 313 312 311 316 316 316 316 313 311 312 312 314 315 315 316 319 318 312 309 309 307 311 316 315 317 314 305 307 307 302 305 308 305 304 308 310 309 308 312 318 316 315 320 319 317 321 320 317 317 317 320 323 319 317 320 320 319 319 317 311 310 314 314 313 313
302 303 304 306 306 305 306 305 306 310 310 310 316 317 313 311 309 308 310 310 311 313 315 317 312 309 314 316 318 317 312 313 314 313 313 314 313 312 312 316 312 306 305 307 313 316 312 314 317 307 305 308 306 308 314 312 305 303 306 307 308 314 319 317 315 319 319 318 322 323 321 321 319 321 322 317 315 318 317 318 323 319 311 312 315 314 314 313
302 303 307 308 306 305 305 306 308 311 311 313 318 315 308 308 307 305 309 310 310 312 316 319 315 311 313 314 315 316 313 314 316 315 314 312 313 314 311 313 314 308 304 304 310 314 309 309 317 310 304 307 310 311 314 315 312 308 309 312 310 309 312 313 312 315 320 322 322 320 321 324 322 318 318 317 315 316 316 319 320 313 310 314 314 314 315 314
303 305 309 308 306 305 305 307 309 310 312 313 313 312 307 307 309 307 307 308 310 311 312 317 317 316 318 314 311 314 316 317 318 316 315 313 313 314 311 309 311 310 308 308 312 315 310 312 321 316 310 314 318 311 305 308 311 309 311 315 313 312 314 315 314 314 315 317 322 321 316 320 325 319 315 316 316 315 313 315 316 311 310 314 314 313 315 314
305 307 309 307 305 305 306 310 307 305 312 315 311 310 309 308 310 309 306 306 309 309 308 311 315 317 319 315 313 316 318 318 317 315 316 316 315 314 310 305 305 307 311 315 316 312 309 312 318 318 317 317 312 305 300 303 306 306 308 311 312 314 317 318 320 319 315 313 316 317 314 319 326 321 315 314 313 310 307 307 310 310 311 314 313 312 314 313
305 307 308 306 305 305 307 310 307 306 312 311 305 307 308 306 307 308 306 305 307 309 310 311 311 312 314 312 312 315 314 315 317 317 318 318 316 312 307 304 305 306 309 315 314 307 308 313 314 316 321 316 307 303 300 300 304 307 309 308 309 313 315 317 322 321 318 316 314 314 315 320 329 329 319 311 308 307 305 305 307 310 312 313 312 312 313 312
305 306 306 304 305 307 307 311 314 315 313 307 305 306 307 305 306 308 310 308 307 309 314 315 311 309 310 309 310 313 311 311 314 314 314 317 314 307 303 304 305 306 307 312 312 307 310 316 314 314 320 321 317 314 309 306 305 310 314 310 308 312 312 313 315 312 313 319 318 316 315 316 326 332 321 313 313 312 309 307 308 309 310 311 311 312 312 312
306 306 305 304 305 307 308 311 316 319 316 310 308 309 308 306 305 306 309 308 305 306 311 313 309 308 309 307 308 311 309 308 311 311 310 313 312 305 302 304 304 304 306 306 306 306 310 316 315 315 317 317 318 320 322 319 311 309 314 312 308 309 311 312 315 312 313 318 317 316 315 312 317 321 316 313 315 312 309 308 308 308 309 310 311 312 312 313
306 307 306 304 304 307 307 306 307 314 318 313 309 310 310 308 306 303 304 306 305 305 307 307 307 309 309 307 309 312 309 306 307 309 310 314 315 307 301 302 303 303 304 304 303 307 312 314 314 316 318 316 314 316 319 317 314 314 316 314 310 308 309 312 316 315 315 315 313 314 314 313 313 314 313 312 311 311 311 309 308 309 309 310 311 311 312 312
305 308 307 305 304 305 306 305 303 306 310 310 310 312 309 309 308 304 303 304 304 305 306 305 307 310 310 309 310 311 309 307 306 307 310 313 313 308 301 301 303 303 303 303 303 308 314 313 312 313 313 313 312 313 313 312 314 318 318 316 314 309 308 311 313 314 314 315 314 313 312 312 312 311 311 311 311 311 311 309 308 308 309 310 311 311 311 312
305 306 305 305 307 306 306 307 304 304 306 306 309 311 309 310 310 308 307 303 301 304 307 306 308 312 313 312 311 310 308 307 308 309 311 310 309 307 305 303 302 302 303 303 303 308 315 316 314 312 311 313 312 310 311 311 312 315 317 318 317 312 309 310 311 312 313 313 313 313 313 312 311 310 310 310 310 310 310 310 309 309 309 309 309 310 310 311
304 305 303 303 307 306 305 305 303 304 307 307 309 310 310 313 312 309 307 305 304 305 305 308 312 313 311 309 309 311 310 309 310 310 310 311 308 308 311 308 304 300 302 305 303 304 311 316 315 311 310 313 311 310 311 311 311 313 313 314 316 313 311 310 311 311 311 311 312 312 312 312 310 310 310 310 310 309 309 309 308 308 308 308 308 308 309 309
303 305 304 303 305 302 302 303 303 304 306 305 308 309 308 312 313 309 305 306 309 307 301 307 314 311 308 308 308 310 311 312 312 309 309 311 309 309 313 313 310 303 301 305 305 301 305 314 314 309 310 314 313 310 310 309 309 310 310 311 312 311 310 309 309 309 309 309 310 310 310 310 309 309 309 308 309 309 308 308 308 307 307 307 307 307 308 309
303 304 303 304 305 303 302 303 303 306 308 306 307 308 307 310 312 309 307 305 307 310 306 309 313 308 306 307 308 309 307 308 311 308 307 310 309 309 309 308 310 310 305 304 306 304 305 310 311 308 310 316 315 308 306 306 305 305 307 311 311 309 310 309 309 309 309 309 310 309 309 309 308 309 308 308 308 308 307 306 306 306 307 307 307 307 307 308
302 303 303 304 306 304 304 304 304 307 309 307 306 306 307 308 304 304 307 305 303 305 307 306 306 307 309 310 310 309 305 304 306 305 306 307 306 306 306 303 306 311 308 304 305 306 306 309 312 309 309 316 315 308 305 305 305 305 306 308 309 309 308 309 309 309 309 309 310 310 309 309 309 309 309 308 309 308 307 305 305 306 307 306 306 307 307 308
Wind_Speed
4 2 2 3 4 4 5 3 2 1 2 2 2 2 6 8 6 3 2 5 7 9 10 12 16 14 5 2 4 3 2 4 7 6 4 4 5 6 6 6 8 9 9 9 7 8 9 9 11 10 8 7 6 7 10 8 6 5 3 2 4 3 4 5 5 5 3 3 4 4 6 6 4 5 7 7 10 14 15 18 19 19 21 22 21 19 16 13
5 3 2 3 4 5 5 2 2 3 1 1 1 1 5 6 6 3 2 6 7 7 10 11 14 15 8 2 5 5 3 1 4 4 2 3 3 5 6 5 8 10 10 10 8 9 10 9 10 10 9 9 7 7 9 8 8 5 3 2 5 5 5 4 5 5 3 3 4 4 6 7 6 5 5 5 7 9 11 18 20 23 25 25 25 24 21 18
6 4 3 3 4 6 5 3 2 2 2 2 1 3 5 4 6 5 2 4 7 8 10 11 13 14 11 5 5 5 5 3 3 2 1 2 4 5 5 5 7 11 12 11 9 9 10 7 7 9 10 8 6 9 9 7 7 6 3 2 6 6 5 4 5 5 4 4 3 4 6 7 9 7 4 5 7 7 10 16 16 22 30 28 27 26 24 22
7 7 5 4 5 5 4 3 2 1 2 3 4 5 7 3 5 6 5 3 5 8 9 12 14 13 12 9 6 5 7 5 2 3 1 5 5 5 4 5 7 12 14 12 10 9 9 6 4 7 8 6 5 7 8 8 6 4 5 5 5 4 3 6 7 6 5 4 4 4 4 6 10 10 8 6 5 8 15 22 21 25 30 26 27 29 26 25
9 8 6 5 5 5 4 3 2 1 2 4 6 7 7 4 3 6 8 6 4 6 8 11 12 10 11 12 8 6 7 3 2 2 3 6 5 4 3 5 7 12 15 14 11 10 9 6 3 5 7 4 4 4 5 10 8 2 4 7 6 4 2 6 7 7 7 6 6 5 3 6 8 9 14 11 7 12 16 17 18 20 22 21 23 27 28 28
9 8 6 5 5 5 5 3 3 2 2 4 6 8 7 5 4 4 7 7 6 7 8 8 9 9 11 12 9 6 4 0 1 2 5 7 7 3 3 5 7 11 14 14 12 10 9 6 3 5 6 3 4 5 4 9 9 3 4 6 7 7 5 5 7 8 8 7 7 5 6 7 6 9 15 18 22 27 25 18 17 16 15 16 18 23 27 29
10 8 7 6 6 7 7 6 6 4 3 4 6 8 8 8 8 6 7 9 9 8 8 7 8 10 12 12 10 7 5 2 2 2 4 9 8 3 2 5 7 10 13 13 12 11 9 7 4 4 4 1 3 5 3 6 7 5 4 4 7 9 8 8 8 10 10 10 10 7 7 8 8 9 10 20 35 36 31 27 25 23 20 17 17 21 26 28
11 9 7 8 9 9 8 8 7 5 4 4 5 7 8 9 8 8 11 13 10 8 9 9 8 10 12 12 9 7 6 3 1 2 6 10 7 3 2 5 7 9 11 12 13 12 10 7 4 2 2 1 3 4 3 3 3 5 5 4 4 7 9 11 11 12 12 12 12 9 10 13 15 12 11 29 43 37 33 32 30 29 27 23 20 20 22 25
11 9 9 9 9 9 9 9 8 7 6 6 7 8 8 9 8 9 12 13 11 9 11 10 8 9 11 10 8 6 4 1 1 3 8 11 7 3 2 5 7 9 10 11 12 12 10 6 3 2 2 1 3 2 3 3 3 5 6 5 4 7 9 10 11 14 13 12 10 8 11 15 13 9 15 35 37 25 23 24 25 28 30 29 26 24 23 24
11 10 10 11 10 10 10 10 10 10 9 9 10 10 9 8 7 8 10 11 12 12 12 11 8 8 9 8 5 2 2 2 3 6 9 10 7 4 2 5 8 9 9 10 11 11 9 5 2 2 1 1 3 1 3 4 3 3 4 6 8 11 12 9 11 14 11 11 10 8 9 12 8 1 11 27 17 8 13 13 16 21 27 30 30 30 28 27
12 11 11 12 12 12 12 12 12 11 11 10 10 10 9 7 7 9 10 11 13 13 12 10 8 8 8 7 5 3 3 5 5 8 9 10 7 4 3 5 8 10 10 10 10 10 9 7 3 2 1 1 1 0 3 4 4 4 4 7 10 12 13 11 11 13 9 7 9 9 9 12 6 3 18 31 20 14 17 16 15 18 22 25 27 30 31 32
12 12 13 13 14 14 13 12 12 12 11 10 9 9 8 8 9 10 11 10 11 12 11 9 7 7 7 7 7 6 5 6 7 9 9 8 6 4 3 4 7 9 10 10 10 10 9 7 4 2 1 2 1 0 2 3 4 4 3 5 8 8 9 11 11 12 9 3 5 4 7 10 5 12 31 35 24 20 20 20 19 19 21 21 23 26 29 31
13 13 13 14 14 14 12 12 12 12 11 11 10 9 9 9 10 10 10 9 9 9 9 7 6 6 6 6 6 4 4 5 7 8 7 6 5 5 4 4 7 9 10 11 10 9 9 7 6 3 1 1 1 1 2 3 2 4 2 1 5 7 6 8 5 7 8 3 4 4 4 9 6 18 30 23 18 19 20 23 22 20 21 20 21 23 25 28
13 13 13 14 14 13 12 12 12 11 11 12 11 10 9 9 10 10 9 8 8 7 6 5 5 6 6 5 4 4 3 4 5 5 4 4 4 4 4 4 7 10 11 11 10 9 8 7 6 3 1 1 1 1 3 4 2 2 2 1 2 2 5 6 1 8 6 2 6 7 3 10 8 16 22 15 14 16 18 22 21 20 20 20 20 22 24 25
14 14 14 14 14 13 12 11 11 11 11 11 10 9 9 9 10 9 8 7 7 6 6 5 5 5 6 6 5 4 2 2 3 3 3 4 4 3 2 3 6 9 11 11 9 8 7 6 5 2 1 1 0 1 3 4 3 1 1 4 2 2 5 7 1 9 5 1 6 7 2 9 10 17 19 11 8 9 14 19 19 20 20 19 21 21 23 24
15 15 15 15 14 13 12 12 12 11 11 10 9 9 8 8 9 9 7 6 6 7 6 5 4 3 4 4 3 2 2 2 3 3 3 3 2 0 1 2 5 8 10 9 8 6 6 5 3 2 2 1 2 4 3 4 4 3 2 4 2 3 4 7 2 5 3 1 4 5 3 7 7 10 8 2 4 8 13 21 23 24 24 23 24 24 25 25
15 16 16 14 13 12 12 12 12 11 10 9 9 8 8 8 8 7 7 6 7 6 5 5 4 4 4 3 3 2 3 3 3 3 2 2 1 2 3 4 6 8 9 9 7 6 6 5 4 2 2 2 3 5 3 3 4 4 1 3 4 3 3 4 3 2 2 1 4 4 4 10 12 12 15 16 18 18 19 28 31 30 30 30 29 29 30 29
15 15 15 13 13 12 13 13 12 11 10 9 9 8 7 7 7 6 6 6 6 5 5 6 5 3 4 4 3 2 3 4 4 2 0 1 2 3 4 5 8 9 10 9 6 6 5 3 4 1 3 3 2 5 3 5 4 2 2 2 3 3 2 4 4 1 3 2 4 4 6 14 16 17 25 30 26 23 26 33 34 33 34 33 32 34 34 34
14 14 14 14 13 13 13 13 12 12 10 9 9 8 7 7 6 6 6 6 6 3 3 5 6 2 1 1 0 1 3 4 4 2 3 3 2 2 4 7 9 9 7 5 3 4 4 4 4 1 2 2 3 5 7 7 5 4 5 4 2 4 4 5 5 3 4 2 6 7 9 13 16 17 21 24 21 21 28 32 32 32 33 33 33 35 37 37
13 14 14 14 14 14 13 13 12 12 11 10 9 8 6 5 4 4 6 6 7 6 5 5 5 5 4 3 3 3 5 4 4 3 3 4 4 3 5 7 6 5 3 2 2 2 4 3 2 5 6 6 6 7 7 5 4 2 2 2 3 4 6 5 4 4 1 2 7 8 9 12 15 17 19 24 20 17 23 25 28 31 32 32 32 34 36 36
12 13 13 13 13 13 13 13 12 12 11 11 10 8 5 5 2 2 3 5 6 8 9 8 7 8 8 7 7 7 7 5 5 4 3 4 4 4 5 4 3 3 2 1 4 3 4 2 6 8 8 6 4 4 4 3 3 2 2 3 4 3 6 6 3 4 2 0 5 6 8 13 15 15 18 21 16 15 19 19 23 30 30 30 30 31 32 31
11 11 10 10 10 10 11 11 11 11 11 11 11 9 6 5 3 2 3 3 5 7 9 10 9 11 10 10 9 8 6 5 4 4 4 4 5 4 4 3 4 2 2 3 4 4 3 3 8 6 4 3 1 0 3 3 3 2 2 1 4 3 5 5 3 4 2 1 5 7 9 14 16 15 16 17 14 17 22 20 23 27 28 29 27 27 28 26
8 8 7 7 7 7 7 7 8 9 10 11 11 10 7 4 3 4 5 3 5 6 8 9 8 9 9 7 6 5 6 4 3 4 4 5 6 4 4 4 4 2 2 3 5 2 0 5 6 3 1 2 1 1 3 2 1 2 3 2 4 3 2 4 4 6 3 2 5 8 9 12 13 10 11 14 13 15 19 18 20 23 25 26 24 24 25 24
6 6 6 5 5 5 5 5 6 6 8 10 9 10 8 5 4 5 5 3 3 3 5 6 6 6 6 5 4 4 6 5 3 3 4 6 6 4 4 4 4 2 1 3 7 4 5 4 1 2 3 3 3 2 2 3 2 3 4 5 5 3 3 4 4 6 5 2 3 5 8 8 6 5 7 10 8 10 13 13 17 19 19 20 20 20 20 21
6 6 5 5 4 5 5 5 6 6 7 7 7 8 8 5 4 4 2 1 3 3 2 4 5 5 5 4 4 3 3 4 4 4 4 6 7 4 2 3 3 2 4 4 6 3 6 3 2 3 2 2 3 3 4 6 2 5 4 7 6 4 3 3 5 6 5 4 3 4 5 6 5 4 7 8 7 9 10 8 15 16 12 14 16 16 17 18
6 6 5 5 4 4 5 5 6 6 6 6 6 7 7 4 2 1 1 3 3 3 1 3 4 3 4 3 3 2 1 3 4 5 4 5 8 6 3 2 1 1 4 5 4 2 3 0 2 4 3 3 2 4 6 6 4 3 3 4 5 5 3 1 4 4 1 4 3 3 2 6 8 6 7 7 8 11 10 7 10 10 7 11 14 15 16 16
7 6 5 5 5 5 5 5 6 6 5 6 7 7 6 4 2 1 1 4 2 2 2 3 3 3 4 4 6 4 1 2 3 4 5 6 8 7 3 2 1 1 3 4 1 2 2 2 3 3 4 3 3 4 5 6 7 2 3 5 5 4 3 2 3 1 3 4 4 2 3 3 8 6 6 6 9 12 10 7 8 6 6 9 13 15 16 16
7 6 5 5 6 6 6 5 6 5 4 6 7 6 6 6 4 1 2 3 1 1 2 3 3 4 4 6 9 6 1 3 3 1 4 5 7 6 3 4 5 3 2 5 3 4 2 3 4 4 4 2 5 4 3 6 4 3 4 5 4 4 4 4 4 1 2 3 5 3 3 2 7 8 5 5 7 9 8 7 7 6 10 16 14 13 14 15
8 6 5 4 6 7 7 6 6 5 5 6 5 5 7 7 4 1 3 1 1 1 1 1 2 2 3 5 7 5 2 2 2 3 4 4 6 4 1 4 6 4 1 3 4 4 1 4 5 6 5 4 5 3 2 3 1 2 4 4 4 4 3 3 4 2 2 3 4 5 4 2 5 8 6 3 3 6 7 7 7 8 14 18 13 12 11 12
8 7 5 5 6 7 7 7 6 5 4 5 5 7 9 5 2 4 3 2 1 2 2 1 0 0 2 2 1 2 1 1 2 5 4 3 4 2 2 3 4 4 1 2 1 3 1 1 2 3 3 4 4 1 1 2 1 3 4 4 4 4 4 3 2 3 3 2 6 6 4 2 2 7 6 3 4 5 4 6 7 11 17 17 12 11 10 10
8 8 7 6 6 7 7 7 6 5 5 5 8 10 7 3 4 5 0 2 1 3 3 2 2 1 2 1 1 2 0 1 1 4 2 2 3 1 3 3 2 3 2 4 1 3 2 0 2 2 2 4 5 3 2 1 1 3 3 2 3 4 3 3 4 3 2 4 6 4 3 3 2 6 6 5 6 5 4 6 9 10 15 15 11 12 11 9
8 9 8 6 6 6 7 6 7 7 7 10 13 10 5 3 2 1 2 2 1 1 1 1 2 0 1 0 1 2 0 1 1 2 2 1 2 2 3 4 3 1 3 3 2 3 2 3 2 1 1 3 4 3 2 3 3 4 3 3 3 3 3 3 3 1 2 5 4 1 1 2 5 9 11 12 13 10 8 10 12 12 16 15 12 12 11 10
9 9 9 8 7 7 8 7 7 9 12 15 13 6 5 4 1 3 2 1 1 1 1 1 0 0 2 1 2 2 1 1 1 1 1 1 0 3 4 4 5 2 2 3 1 2 2 3 1 1 1 2 4 4 1 1 1 3 4 4 3 2 2 2 4 2 3 4 3 2 1 2 5 7 11 14 15 13 11 12 16 17 17 15 14 12 11 11
9 9 10 10 8 9 10 8 8 12 15 15 10 3 4 1 4 3 2 4 2 0 1 2 1 1 2 1 3 1 1 2 1 2 0 1 0 3 4 5 5 4 2 1 2 2 1 3 1 2 0 1 2 3 4 3 3 3 4 5 4 4 4 4 4 3 4 3 3 3 1 3 4 4 8 10 12 16 17 19 19 16 15 14 15 14 11 11
9 9 10 10 10 10 11 10 11 15 17 13 5 4 3 4 4 2 3 4 1 0 0 1 3 2 1 3 3 1 2 2 1 3 1 2 3 3 3 5 6 5 4 2 3 2 1 4 2 1 0 2 1 2 2 3 2 2 2 4 2 4 4 2 3 4 3 2 3 2 3 5 4 8 13 9 9 13 15 16 15 15 15 14 15 15 11 11
9 10 10 10 10 10 11 12 13 16 17 10 4 2 4 4 3 3 3 2 2 3 2 1 2 2 2 3 2 1 0 1 1 1 2 3 4 4 4 4 6 7 5 4 3 1 1 4 3 3 1 2 1 2 1 1 2 1 2 2 4 4 4 2 2 1 3 0 4 1 3 5 4 8 12 7 7 8 8 7 8 14 15 13 15 14 11 11
9 10 10 10 10 10 11 12 14 17 16 7 4 3 5 3 4 5 3 2 2 4 5 1 1 2 2 2 2 2 0 1 1 1 2 3 3 5 4 3 4 7 6 3 2 2 3 3 3 1 1 2 1 1 2 1 2 3 2 4 3 1 4 3 1 4 3 2 4 2 4 5 3 5 7 8 8 9 9 6 7 10 12 14 16 13 10 10
8 9 9 10 10 10 12 12 15 18 13 5 1 4 3 3 3 3 4 3 2 4 4 2 2 2 3 2 2 2 2 1 2 1 2 2 3 4 5 2 1 2 2 3 1 2 3 2 4 1 1 3 2 1 2 1 2 2 2 2 1 2 1 1 1 1 1 3 4 4 4 4 4 5 6 9 8 9 11 9 8 9 9 14 15 12 10 11
8 7 7 9 11 11 12 15 18 17 9 3 3 4 2 3 3 3 5 4 2 3 2 4 2 1 3 4 2 3 3 3 3 2 2 1 2 3 3 2 1 1 0 5 3 2 3 1 4 2 1 3 3 0 3 1 1 1 2 3 1 3 3 2 2 3 2 2 3 5 5 3 6 6 5 11 11 8 10 9 8 9 10 13 14 12 11 11
9 6 5 9 11 11 14 17 17 13 5 2 5 3 1 2 3 4 6 4 2 3 2 3 2 1 3 4 3 2 2 3 4 2 2 2 2 3 1 1 3 1 1 3 2 1 2 0 4 3 3 2 1 3 5 5 3 2 1 2 1 1 2 1 2 2 4 2 2 3 5 5 6 5 7 13 13 9 9 8 8 10 12 13 13 11 11 11
9 4 3 9 11 13 17 17 10 6 2 2 3 2 2 2 2 4 6 5 3 2 2 3 4 4 3 3 3 3 3 3 4 3 3 3 3 3 2 2 4 4 2 3 0 2 1 2 3 1 2 3 5 5 3 4 4 5 5 4 4 4 3 1 4 2 2 3 4 3 6 7 5 4 8 12 11 8 8 8 8 12 15 14 12 10 11 12
9 3 3 10 12 16 19 11 2 1 3 3 3 2 2 2 2 3 5 5 3 2 1 1 3 4 3 3 3 3 4 2 3 3 3 5 5 4 4 4 5 6 5 2 3 3 3 3 2 3 4 5 6 5 1 3 3 3 3 3 3 4 5 4 4 3 1 2 2 3 4 7 6 6 7 9 9 9 9 8 8 14 17 14 12 12 13 13
8 4 6 10 15 20 16 3 3 1 2 2 2 2 2 2 2 2 3 4 3 2 1 1 3 4 3 3 2 3 4 3 5 5 4 4 4 3 4 6 5 5 5 2 3 2 3 2 1 4 4 2 4 4 1 1 2 1 3 4 5 4 4 5 5 3 2 2 2 1 4 7 7 7 6 6 8 11 12 10 10 15 18 16 16 17 16 16
6 5 6 9 17 22 12 2 3 5 4 1 1 1 2 2 4 4 3 5 4 4 3 2 4 4 2 2 3 4 5 3 3 5 3 3 3 1 3 5 5 4 2 1 2 4 3 1 2 1 5 5 6 5 3 3 1 3 4 3 5 5 4 3 2 3 2 5 7 4 7 9 7 6 7 8 10 10 12 13 13 15 18 21 23 25 26 28
5 4 4 8 19 20 9 3 4 4 3 2 1 3 2 2 5 6 4 4 4 4 3 1 2 2 1 2 2 2 4 2 2 2 1 2 3 1 2 4 4 3 2 1 3 4 3 2 4 4 3 4 4 3 3 3 2 3 2 3 6 8 8 4 2 3 3 6 7 6 9 10 7 8 11 12 13 12 14 18 18 18 23 27 30 33 34 33
6 3 2 4 13 17 10 6 4 3 3 4 1 3 5 3 4 5 5 4 4 4 3 1 1 2 2 2 1 3 4 2 1 1 1 3 3 1 1 2 2 2 1 2 4 3 2 1 4 6 7 8 7 7 4 3 3 3 3 5 6 8 8 5 3 4 5 3 4 8 14 14 10 12 16 16 16 16 16 16 16 19 24 28 30 32 31 30
5 3 4 4 5 10 10 8 7 4 3 6 4 2 6 5 1 1 4 4 3 4 3 0 2 3 2 4 3 3 3 1 2 1 3 4 3 2 1 1 1 3 2 3 3 4 3 2 6 7 9 11 9 6 3 3 3 6 5 5 6 7 7 7 6 7 3 1 6 11 13 14 13 15 19 21 20 19 17 15 14 18 22 23 25 27 28 29
7 4 7 7 4 5 6 9 12 9 5 5 5 2 4 5 2 3 5 3 1 4 5 1 3 8 8 7 5 2 2 1 2 4 3 2 2 1 1 2 2 2 3 2 2 4 4 4 5 5 8 13 11 7 5 4 4 5 6 7 7 8 9 10 13 12 6 7 13 11 9 13 14 16 19 22 21 20 21 22 20 20 22 22 22 25 29 30
11 5 6 9 6 6 8 9 11 13 9 5 4 4 5 7 7 5 2 2 1 5 7 3 7 11 10 7 6 4 5 4 4 6 3 2 3 2 0 2 2 1 2 2 1 2 4 3 4 3 6 12 12 9 7 7 7 6 8 10 9 10 13 14 15 16 15 16 18 17 18 19 17 17 21 26 30 28 29 32 30 26 26 26 26 29 33 36
13 10 9 9 6 5 6 5 7 9 7 4 4 5 5 8 9 6 3 7 5 2 5 8 11 9 8 8 8 7 8 10 8 6 6 5 2 3 3 3 3 1 1 1 1 1 3 3 1 3 2 10 11 6 4 6 7 7 8 10 11 10 10 11 14 15 14 15 19 21 20 17 18 22 24 29 36 32 28 31 32 29 29 29 30 32 35 38
17 15 12 8 5 6 7 4 6 6 3 4 6 5 4 8 12 8 5 11 14 8 10 14 11 5 5 7 10 13 14 16 13 7 10 9 5 5 6 4 7 5 2 2 1 1 3 3 2 4 1 8 6 4 2 1 1 3 7 12 16 13 10 13 15 13 13 16 19 17 13 13 18 20 17 19 23 21 19 23 26 28 31 29 28 30 33 34
22 18 14 9 5 7 9 5 5 5 4 6 9 7 6 9 10 10 4 9 17 19 16 16 10 5 4 7 13 20 24 26 22 12 7 7 6 6 7 7 10 9 5 5 2 2 5 3 0 2 2 7 6 3 3 4 4 4 8 15 20 17 14 15 13 11 16 17 13 11 12 16 17 13 10 13 16 14 14 17 21 25 29 27 25 27 31 33
Wind_Direction
236 179 165 217 238 222 195 182 75 54 304 291 230 323 324 306 297 281 325 344 345 332 336 6 20 24 43 235 322 343 293 231 234 238 226 201 215 247 248 242 237 223 208 203 191 178 179 165 165 173 172 166 169 181 185 197 192 177 150 168 227 195 199 199 190 199 165 243 263 233 218 203 255 262 243 260 252 246 247 242 234 231 232 237 247 253 259 258
245 220 190 197 216 218 221 248 15 14 357 313 181 9 325 293 287 293 335 339 344 332 326 347 3 9 20 339 347 9 15 257 245 240 199 214 256 274 256 238 228 214 202 198 189 180 182 173 174 179 172 164 166 179 184 199 199 186 133 177 226 201 210 207 186 199 166 236 246 241 226 211 243 263 239 252 255 246 249 249 240 238 238 236 242 247 251 250
238 238 231 199 198 211 234 272 360 35 87 47 13 348 339 287 282 304 353 347 333 322 326 333 336 350 4 341 331 355 357 330 268 212 168 320 317 298 260 234 220 206 197 193 187 187 188 177 176 180 173 170 177 184 183 188 198 207 176 208 243 216 229 235 205 212 214 240 250 250 235 224 245 251 227 236 266 262 240 243 236 236 241 236 236 242 245 244
223 235 240 210 195 208 236 266 337 47 89 27 5 351 347 318 279 292 307 330 320 313 313 313 313 329 349 340 320 328 338 335 195 156 359 330 324 304 257 225 213 200 193 190 190 194 193 181 182 187 182 188 192 185 189 187 190 205 180 206 238 197 232 242 218 225 231 233 242 242 234 248 253 242 232 234 280 271 242 245 243 243 251 246 237 238 240 240
217 231 242 219 197 203 222 243 302 359 41 11 359 350 343 330 290 279 290 300 313 325 314 306 306 315 336 338 325 316 333 355 155 139 348 333 328 307 240 208 202 195 191 189 193 197 201 205 209 189 185 200 176 166 207 197 188 202 208 226 230 179 224 252 227 231 237 233 243 237 219 254 252 239 240 225 223 252 251 259 259 254 261 259 246 240 239 238
219 231 238 222 197 199 210 223 256 284 346 356 350 346 337 316 307 284 279 291 309 327 325 317 312 313 326 330 324 310 312 357 231 314 349 349 338 306 216 191 186 191 193 191 196 203 208 213 204 171 172 196 171 173 222 201 194 226 253 247 239 216 222 255 239 239 243 234 240 240 238 254 255 261 254 231 235 254 262 268 269 265 266 266 253 241 238 238
222 231 228 211 198 201 209 215 228 246 300 342 343 338 332 314 306 304 301 304 309 321 330 323 311 312 320 324 321 305 290 284 285 283 344 350 336 307 212 186 175 185 193 194 200 206 209 205 192 147 138 155 191 197 222 202 198 214 255 267 245 234 234 255 257 253 252 246 254 257 258 260 247 269 275 250 253 262 268 266 264 264 264 264 251 238 238 241
223 231 225 209 206 212 219 228 237 250 271 303 324 322 322 311 289 285 295 297 298 316 330 321 308 310 317 319 313 303 296 293 269 265 333 340 330 322 225 192 175 181 191 198 205 206 206 203 193 142 131 181 191 201 197 207 222 207 236 263 246 244 251 261 262 257 258 260 266 263 260 261 258 272 281 267 269 273 274 269 262 258 257 256 249 241 240 243
227 231 228 221 223 229 237 247 256 266 278 288 299 301 303 295 267 255 273 287 296 315 327 319 311 311 313 309 301 305 302 285 273 301 331 335 328 330 234 197 180 180 188 198 206 206 203 200 194 185 204 200 178 198 168 176 247 218 226 256 259 259 266 266 257 258 262 263 266 260 263 267 270 284 274 270 275 282 278 270 261 253 248 247 245 243 242 244
230 230 228 229 233 239 247 256 265 276 287 290 291 291 287 284 272 258 270 289 298 311 320 313 309 308 306 300 289 288 283 279 302 312 329 331 324 323 258 202 186 184 189 200 204 205 203 191 162 164 211 138 142 167 158 170 238 256 249 272 270 266 272 267 255 260 261 262 255 240 266 273 269 305 267 269 275 283 277 273 263 249 243 244 243 243 244 246
228 228 229 233 237 243 251 260 272 282 290 294 292 287 281 278 272 270 279 286 290 301 306 302 302 297 293 285 246 211 271 286 303 318 326 322 316 315 279 208 194 188 192 202 201 203 202 192 167 149 207 202 143 224 211 214 256 294 307 289 278 278 279 259 248 253 241 262 252 230 269 276 256 180 249 260 265 273 279 280 268 252 248 247 244 245 245 248
223 224 229 237 245 252 261 270 281 288 292 294 290 284 281 278 274 280 286 283 282 290 291 292 293 284 285 278 252 242 272 288 307 319 318 311 311 315 292 220 200 192 195 206 206 203 202 204 206 211 211 176 165 266 250 265 282 297 322 294 290 315 297 250 240 237 211 233 248 209 286 274 210 221 248 260 269 278 280 276 268 257 256 254 249 248 246 249
226 225 230 239 249 257 268 277 284 289 293 290 282 280 280 279 282 289 290 285 281 279 278 285 287 284 284 276 263 252 266 295 313 312 304 304 315 316 294 233 201 190 196 207 210 207 207 216 218 222 232 171 176 237 290 318 325 297 303 239 298 338 313 259 237 199 183 204 204 150 285 270 229 238 250 266 282 284 280 273 269 260 257 257 254 251 249 249
235 234 237 245 252 260 268 274 280 286 294 291 278 272 276 281 290 295 292 285 277 266 260 269 283 286 273 263 262 259 277 315 313 305 303 308 312 307 287 236 199 189 196 204 208 208 211 222 224 221 225 202 221 277 324 347 17 311 293 260 310 310 283 293 134 150 158 216 185 144 249 266 269 264 267 281 286 283 275 271 272 266 262 259 256 254 252 251
242 243 246 253 258 266 272 277 280 281 291 294 277 264 271 281 292 295 288 276 262 249 245 261 280 279 269 263 255 256 296 327 312 312 310 313 312 307 285 217 190 184 190 197 199 201 208 214 211 180 129 186 17 17 350 352 358 17 272 292 325 194 263 305 189 160 160 194 174 149 246 270 277 281 285 293 295 284 268 274 278 270 268 264 261 257 256 256
245 248 251 257 264 270 274 278 278 276 285 290 271 258 267 279 287 288 279 262 242 237 241 260 269 257 267 267 237 246 333 328 328 323 307 320 327 58 111 149 163 172 181 187 189 186 191 186 162 111 102 121 84 77 25 351 334 345 202 256 269 194 274 319 282 192 189 128 191 196 247 278 278 281 285 301 326 305 275 277 276 271 270 266 264 262 260 260
246 250 254 259 264 268 271 275 274 272 278 278 263 257 266 277 282 280 268 251 241 243 249 256 253 251 262 250 221 262 321 330 334 323 328 15 77 113 117 133 141 155 161 162 164 158 160 145 125 123 70 64 92 94 54 302 286 307 265 246 250 216 257 306 308 253 207 164 232 231 236 259 266 275 275 275 289 293 279 275 273 271 269 265 264 262 260 260
247 252 256 259 262 264 267 268 266 266 268 263 257 258 266 274 279 277 263 249 243 250 260 244 227 245 250 224 218 266 303 314 316 305 259 111 126 129 136 131 131 139 137 134 137 130 132 103 92 83 13 34 78 109 142 227 220 224 217 227 281 294 259 258 285 256 165 199 253 247 254 259 266 275 274 275 280 278 271 272 273 272 270 267 264 261 260 258
246 253 256 259 261 262 262 260 259 260 256 249 248 252 261 267 270 268 258 245 230 225 263 230 203 192 209 196 141 338 313 305 294 245 204 184 155 152 147 132 131 135 128 118 101 104 112 77 78 108 273 223 197 168 184 202 171 167 185 178 243 286 280 253 265 252 171 223 257 238 250 263 272 278 277 279 278 266 265 270 272 273 272 270 266 263 261 258
245 251 255 259 260 260 260 258 257 253 243 238 236 237 243 240 251 268 254 245 236 232 254 252 232 245 274 310 322 319 313 296 271 236 204 188 171 154 143 141 131 114 102 134 134 72 91 98 183 212 217 210 217 204 193 197 170 166 196 226 251 253 281 273 271 291 169 223 256 240 252 266 272 275 277 282 280 261 259 265 269 270 271 269 267 267 265 261
244 248 252 257 258 259 259 256 255 246 235 229 222 219 219 204 180 325 277 258 251 244 252 260 257 258 269 281 285 296 300 286 267 241 215 196 177 159 155 146 102 79 353 119 120 59 81 152 234 227 210 201 222 215 195 209 205 222 240 274 284 240 264 267 249 298 346 196 271 277 284 276 271 272 277 281 278 262 256 255 262 268 271 272 269 269 270 269
241 243 246 250 253 256 257 255 251 239 228 221 215 212 209 196 186 319 317 275 257 249 247 253 257 259 261 266 276 287 278 266 265 235 213 195 184 189 176 119 88 133 347 57 89 32 40 236 246 237 213 190 304 255 171 198 192 196 197 262 286 257 278 287 287 317 354 171 281 311 308 284 276 273 273 273 264 264 265 256 260 267 271 274 274 273 275 274
238 234 233 238 243 248 249 247 242 230 221 215 214 211 204 199 213 299 314 291 270 261 246 248 254 251 249 256 268 263 237 233 247 226 210 200 188 177 161 122 89 110 40 89 133 100 46 255 252 233 131 163 272 340 131 154 214 201 175 185 268 275 306 284 296 321 309 225 278 306 299 283 283 283 277 274 261 265 274 268 266 267 268 274 279 278 278 276
228 220 215 216 221 228 225 221 217 207 207 208 211 211 209 218 256 293 297 285 298 282 236 234 234 232 234 239 244 236 225 225 237 222 206 199 182 159 168 140 93 110 237 167 145 163 224 246 255 89 74 145 205 289 147 164 273 271 199 192 238 250 219 233 284 321 319 317 321 319 304 285 299 325 298 293 289 278 283 285 281 274 267 271 278 280 279 278
216 211 202 200 206 207 199 197 189 180 190 196 201 207 208 224 257 290 306 359 317 297 215 214 222 228 225 225 230 223 231 240 238 224 210 198 184 164 148 140 119 194 222 152 131 206 250 239 142 128 76 112 176 245 213 177 223 304 238 198 195 188 203 275 327 346 2 345 334 14 343 291 300 318 283 296 326 303 295 294 288 288 277 268 275 283 283 281
209 204 200 204 203 192 187 182 174 177 185 188 192 194 195 210 234 244 91 55 323 272 188 188 210 214 210 226 226 188 340 284 237 221 214 201 193 173 136 145 123 211 183 138 138 227 248 128 102 139 142 122 154 252 239 169 132 300 255 175 157 148 140 16 9 15 2 277 287 66 81 270 295 296 264 287 315 304 306 301 289 298 290 268 274 280 280 280
208 201 200 206 198 187 184 173 172 178 178 181 186 185 188 192 173 190 38 32 336 247 166 179 186 180 189 195 190 169 7 249 194 215 210 199 199 184 184 209 111 216 176 127 192 256 139 87 56 106 120 132 185 248 236 149 125 239 232 135 125 127 148 149 92 94 233 272 311 26 128 251 294 278 257 299 311 310 318 311 304 332 343 307 289 277 273 274
210 206 205 204 196 193 183 165 164 167 165 173 177 188 194 190 192 183 89 50 316 188 153 175 164 168 170 170 184 187 184 171 146 200 194 185 196 183 214 222 174 193 186 131 213 266 130 161 189 150 121 172 210 225 200 138 122 235 199 131 122 126 143 136 112 172 281 343 315 286 143 209 279 274 290 322 307 306 306 289 289 309 333 329 310 283 274 270
215 214 211 203 198 197 188 172 163 159 169 178 183 191 177 174 193 124 89 96 239 134 113 138 153 173 143 146 185 204 192 180 155 160 159 163 185 170 208 213 159 144 147 136 196 250 186 193 202 160 149 212 220 212 162 132 125 194 142 98 62 70 85 87 104 133 22 357 257 228 181 193 275 280 299 327 277 272 276 277 272 280 312 325 312 285 273 268
222 219 215 210 202 198 197 192 185 177 184 188 179 163 150 150 122 62 41 299 288 16 15 37 266 276 86 86 283 265 196 221 165 145 134 134 166 149 112 146 118 113 35 18 158 232 266 231 223 170 173 190 166 152 140 130 142 129 110 72 35 32 43 53 61 89 66 302 257 233 203 163 289 279 269 240 230 228 242 286 289 293 309 316 309 292 273 262
224 224 220 216 203 197 197 197 194 187 185 174 156 147 136 88 64 84 66 277 15 358 357 350 322 19 86 108 297 292 330 305 188 143 132 100 128 122 105 112 93 84 358 338 294 274 314 334 239 206 172 136 106 69 12 35 82 100 101 77 32 351 11 28 356 41 98 253 265 252 201 151 224 265 259 248 257 235 216 272 285 289 296 299 304 301 282 265
218 224 222 217 203 189 183 182 175 167 167 157 150 146 119 52 32 159 245 328 14 273 258 272 281 281 127 16 269 245 260 305 258 126 150 147 143 198 176 170 177 107 318 262 245 296 266 221 259 32 170 159 112 80 19 357 26 79 98 79 53 341 357 351 306 330 204 244 272 285 158 180 235 258 265 268 272 261 231 242 257 264 274 286 301 298 280 266
215 219 218 215 203 181 170 165 158 158 158 153 152 144 86 76 225 223 237 314 248 219 162 99 322 117 121 111 269 236 149 244 231 108 171 144 222 255 244 209 177 167 267 214 223 307 293 298 332 63 266 206 149 133 158 279 95 135 152 122 119 117 67 286 273 282 260 257 275 280 268 266 270 264 251 251 262 268 261 259 264 264 264 279 296 293 276 264
214 214 215 212 201 186 176 165 159 158 158 157 155 121 81 122 230 205 227 245 231 358 43 96 79 47 104 185 252 223 162 243 170 122 123 91 357 270 257 234 189 146 121 164 222 198 242 305 260 157 277 155 171 172 170 165 144 179 175 131 139 153 154 228 241 223 249 281 295 293 282 211 221 265 249 236 255 272 276 276 275 268 261 273 287 284 274 266
213 212 214 211 204 195 181 174 168 163 165 166 130 81 131 226 242 195 225 233 211 67 263 99 99 94 289 274 281 232 178 245 118 115 166 173 191 215 217 217 195 158 128 163 235 158 171 264 285 21 110 141 189 220 154 115 130 206 150 109 169 187 152 186 204 189 199 310 295 263 245 220 215 283 284 275 276 277 276 274 266 259 261 270 276 276 275 268
212 210 212 210 208 201 185 179 173 170 174 166 87 89 196 225 217 183 196 171 140 151 148 16 79 125 280 292 302 320 143 209 109 111 228 211 208 213 219 221 194 183 165 158 205 158 131 274 315 10 274 158 165 228 187 153 181 170 126 172 227 185 116 117 246 326 71 235 273 237 254 284 317 293 290 316 328 306 302 293 264 257 261 264 267 272 271 261
213 211 212 207 206 203 192 183 174 177 180 154 106 206 217 223 199 188 178 131 138 136 114 33 260 177 230 271 269 257 173 229 193 138 240 240 233 210 216 248 197 196 196 162 212 201 150 268 306 56 215 261 250 265 304 253 155 118 172 227 239 132 79 89 234 341 28 234 275 278 241 278 317 285 302 338 330 304 301 306 298 280 261 253 262 268 263 254
212 211 214 206 202 199 190 184 178 179 176 134 156 233 217 207 205 183 168 154 132 102 104 194 229 178 189 211 260 216 161 201 202 178 225 242 250 201 183 217 199 209 207 144 209 271 135 256 299 45 218 292 346 348 301 318 123 135 193 232 123 142 134 78 150 237 291 265 282 295 278 257 232 241 289 297 278 276 287 296 310 296 253 245 258 264 256 247
206 205 215 207 198 193 184 181 179 175 164 135 216 236 223 223 238 195 174 164 130 118 149 216 213 87 183 179 195 196 182 199 188 191 228 208 253 218 175 184 160 351 344 137 171 248 106 147 285 308 277 306 12 145 214 220 75 55 339 328 359 169 176 160 162 169 189 253 280 306 315 257 228 221 236 264 261 252 269 282 290 281 263 257 262 261 256 249
196 196 219 203 193 188 178 172 171 167 156 184 200 215 269 252 240 196 181 176 160 160 203 213 163 175 216 199 209 200 179 192 173 176 237 224 251 260 236 149 139 145 2 87 148 233 77 133 255 300 322 285 228 216 197 184 162 129 221 273 256 194 164 187 243 144 139 189 221 278 288 257 242 229 219 251 263 243 240 258 266 271 276 278 272 264 263 260
189 190 223 191 185 182 168 161 163 164 155 204 203 212 245 208 187 194 194 195 207 202 198 184 169 183 191 194 227 198 159 183 184 189 240 227 229 253 231 159 151 156 113 67 110 218 153 166 197 249 292 223 234 246 201 179 172 158 185 207 187 171 134 134 269 281 119 179 182 197 269 263 246 230 223 243 259 249 236 241 255 272 279 282 283 282 281 275
187 196 204 181 179 175 163 155 176 144 149 203 214 200 202 185 168 183 186 190 215 225 193 188 186 186 184 193 211 179 162 185 193 197 230 218 214 219 192 168 166 159 133 134 228 214 148 122 138 230 225 218 251 270 198 165 158 148 196 208 168 152 135 150 223 261 251 225 172 158 257 271 262 249 238 241 258 271 263 238 241 270 277 277 289 300 294 280
194 191 182 179 178 170 159 153 303 247 219 223 194 187 199 179 149 153 176 195 211 192 189 241 204 196 217 203 169 177 192 197 189 194 221 226 229 230 183 165 165 153 129 152 218 179 133 124 170 277 290 302 304 317 356 109 115 169 237 194 163 174 168 167 182 184 192 214 174 181 262 267 271 267 257 253 265 277 276 256 242 259 269 273 287 300 299 292
194 181 177 180 179 174 170 187 200 215 252 259 53 254 230 221 197 174 186 208 202 170 171 230 211 206 226 154 136 193 208 200 205 213 219 216 233 254 167 170 180 175 165 199 171 163 190 173 124 305 325 334 337 348 335 312 218 220 240 198 190 187 143 130 165 156 231 226 189 199 261 259 265 284 285 280 278 275 272 263 253 256 268 279 289 296 298 299
170 167 180 184 183 184 196 218 163 179 209 166 250 243 205 242 223 205 210 218 204 180 177 238 211 161 129 113 107 225 220 210 232 240 235 220 248 279 157 188 207 215 249 239 142 151 193 190 138 156 222 251 266 275 254 242 203 220 239 207 205 194 171 169 160 154 234 236 184 190 251 256 269 287 281 277 278 276 270 265 262 263 273 282 288 291 293 293
165 178 194 180 190 200 224 242 180 142 159 163 246 239 191 207 235 209 207 220 216 194 182 242 171 112 79 138 189 253 248 261 329 316 265 233 254 299 159 209 216 198 181 152 151 132 108 230 206 191 206 220 228 236 214 137 131 199 224 208 202 207 198 169 117 162 201 220 191 215 246 260 278 282 279 278 275 275 274 270 268 266 269 275 280 283 285 283
168 201 186 152 199 219 237 247 216 181 163 172 183 209 191 200 269 193 198 219 222 192 187 278 171 170 179 174 184 245 245 322 5 278 233 229 251 308 264 225 190 186 164 137 163 134 91 265 236 208 226 242 249 249 195 128 186 199 200 218 206 203 192 168 198 220 156 97 248 235 241 258 268 269 274 278 278 277 276 276 280 276 272 273 275 276 277 276
187 221 197 179 194 205 214 234 217 199 186 178 185 197 175 178 185 186 200 222 244 190 191 258 234 212 201 174 161 199 197 34 295 246 226 226 244 316 312 241 206 189 176 160 177 134 124 245 236 195 236 256 260 250 195 187 226 186 185 225 213 189 183 188 220 231 194 219 253 253 247 254 257 259 263 267 270 273 278 285 290 286 282 280 277 276 277 277
198 217 203 196 213 199 194 212 199 190 195 188 190 208 182 184 202 210 179 110 282 228 194 205 245 226 207 179 163 186 187 178 231 237 202 184 204 185 224 239 218 195 150 146 217 159 155 240 244 187 246 266 263 248 209 203 226 207 209 231 221 201 198 200 222 234 226 235 256 266 263 261 262 261 259 262 267 273 281 287 287 284 283 282 279 277 278 279
204 210 192 187 217 214 196 193 165 175 200 200 212 227 195 189 203 216 182 163 188 238 177 207 239 221 192 188 191 211 207 189 212 232 183 168 195 197 213 209 165 117 66 126 255 227 187 246 279 104 275 277 274 265 225 211 226 230 238 247 239 225 214 216 231 237 237 247 253 255 262 268 265 260 258 262 270 277 281 281 281 282 282 278 274 273 274 277
209 210 194 178 194 184 175 159 129 144 190 200 207 219 205 207 204 197 211 206 198 186 177 201 220 190 159 193 210 228 224 208 217 217 172 176 195 194 210 194 143 134 153 176 158 123 179 253 355 66 298 275 295 343 337 332 286 248 254 251 240 228 215 220 226 221 219 234 244 251 261 261 255 258 261 262 265 268 269 271 277 280 277 272 268 269 274 277
211 213 202 189 203 186 172 143 121 160 211 201 196 204 212 218 199 172 200 237 216 212 209 198 180 135 148 197 216 234 237 230 232 231 198 210 233 216 221 204 168 156 159 167 162 148 165 183 167 122 210 266 291 346 20 19 347 264 229 225 228 227 226 232 239 229 218 221 232 242 240 243 251 262 271 266 257 253 256 263 270 274 275 274 270 271 277 279